Bournemouth, United Kingdom

11:43 AM BST on August 24, 2016 (GMT +0100)
Bournemouth

Weather History for EGHH - October, 2012

Change the Weather History Date:

Wednesday, October 24, 2012

  Actual Average Record
Temperature  
Mean Temperature 58 °F -  
Max Temperature 62 °F 53 °F 62 °F (1996)
Min Temperature 54 °F 39 °F 28 °F (2002)
Degree Days  
Heating Degree Days 7    
Growing Degree Days 8 (Base 50)    
Moisture  
Dew Point 54 °F    
Average Humidity 90    
Maximum Humidity 95    
Minimum Humidity 77    
Precipitation  
Precipitation 0.00 in 0.11 in - ()
Sea Level Pressure  
Sea Level Pressure 30.05 in    
Wind  
Wind Speed 7 mph ()    
Max Wind Speed 13 mph    
Max Gust Speed -    
Visibility 2.8 miles    
Events      
Averages and records for this station are not official NWS values.
T = Trace of Precipitation, MM = Missing Value Source: Averaged Metar Reports

Daily Weather History Graph

Daily Weather History Graph

Search for Another Location

Airport or City:

Trip Planner

Search our weather history database for the weather conditions in past years. The results will help you decide how hot, cold, wet, or windy it might be!

Date:

Astronomy

Oct. 24, 2012 Rise Set
Actual Time 7:45 AM BST 5:56 PM BST
Civil Twilight 7:11 AM BST 6:30 PM BST
Nautical Twilight 6:33 AM BST 7:08 PM BST
Astronomical Twilight 5:55 AM BST 7:46 PM BST
Moon 3:32 PM BST 1:53 AM BST
Length of Visible Light 11h 18m
Length of Day
10h 10m
Waxing Gibbous, 74% of the Moon is Illuminated
Oct 24
Waxing Gibbous
Oct 29
Full
Nov 7
Last Quarter
Nov 13
New
Nov 20
First Quarter

Hourly Weather History & Observations

Time (BST) Temp. Dew Point Humidity Pressure Visibility Wind Dir Wind Speed Gust Speed Precip Events Conditions
12:20 AM 55.4 °F 53.6 °F 94% 30.18 in 1.9 mi NE 5.8 mph - N/A   Overcast
12:50 AM 55 °F 54 °F 95% 30.19 in 1 mi NE 8.1 mph - -   Mist
3:50 AM 54 °F 52 °F 92% 30.14 in 3 mi NE 6.9 mph - -   Light Haze
4:50 AM 53.6 °F 51.8 °F 94% 30.09 in - NNE 4.6 mph - N/A   Overcast
5:20 AM 55.4 °F 53.6 °F 94% 30.09 in - NNE 6.9 mph - N/A   Overcast
5:50 AM 55.4 °F 53.6 °F 94% 30.09 in - NNE 5.8 mph - N/A   Overcast
6:20 AM 55.4 °F 53.6 °F 94% 30.09 in 3.1 mi NE 5.8 mph - N/A   Overcast
6:50 AM 55 °F 53 °F 92% 30.10 in 3 mi NE 6.9 mph - -   Light Haze
6:50 AM 55.4 °F 53.6 °F 94% 30.09 in 3.7 mi NE 6.9 mph - N/A   Overcast
7:20 AM 55.4 °F 53.6 °F 94% 30.09 in 4.3 mi NE 6.9 mph - N/A   Overcast
7:50 AM 55.4 °F 53.6 °F 94% 30.09 in 3.1 mi NE 8.1 mph - N/A   Overcast
8:20 AM 55.4 °F 53.6 °F 94% 30.09 in 3.1 mi NE 6.9 mph - N/A   Overcast
8:50 AM 55.4 °F 53.6 °F 94% 30.09 in 3.1 mi NE 5.8 mph - N/A   Overcast
9:20 AM 55.4 °F 53.6 °F 94% 30.09 in 2.8 mi NE 8.1 mph - N/A   Overcast
9:50 AM 55 °F 53 °F 92% 30.11 in 3 mi NE 6.9 mph - -   Light Haze
9:50 AM 55.4 °F 53.6 °F 94% 30.09 in 2.8 mi NE 8.1 mph - N/A   Overcast
10:20 AM 55.4 °F 53.6 °F 94% 30.09 in - NE 9.2 mph - N/A   Overcast
10:50 AM 55.4 °F 53.6 °F 94% 30.09 in 2.8 mi NE 9.2 mph - N/A   Overcast
11:20 AM 57.2 °F 53.6 °F 88% 30.09 in 2.8 mi ENE 8.1 mph - N/A   Haze
11:50 AM 57.2 °F 55.4 °F 94% 30.09 in 2.8 mi ENE 9.2 mph - N/A   Haze
12:20 PM 57.2 °F 55.4 °F 94% 30.06 in 2.8 mi NE 8.1 mph - N/A   Haze
12:50 PM 58 °F 55 °F 86% 30.07 in 3 mi NE 8.1 mph - -   Light Haze
12:50 PM 59.0 °F 55.4 °F 88% 30.06 in 2.8 mi NE 8.1 mph - N/A   Haze
1:20 PM 59.0 °F 55.4 °F 88% 30.06 in 3.1 mi ENE 9.2 mph - N/A   Haze
1:50 PM 59.0 °F 55.4 °F 88% 30.04 in 3.1 mi ENE 8.1 mph - N/A   Haze
2:20 PM 60.8 °F 55.4 °F 82% 30.04 in 3.7 mi ENE 11.5 mph - N/A   Mostly Cloudy
2:50 PM 62.6 °F 55.4 °F 77% 30.01 in 3.7 mi ENE 12.7 mph - N/A   Mostly Cloudy
3:20 PM 60.8 °F 55.4 °F 82% 30.01 in 3.7 mi ENE 11.5 mph - N/A   Mostly Cloudy
3:50 PM 61 °F 56 °F 77% 30.02 in 3 mi ENE 11.5 mph - -   Light Haze
3:50 PM 60.8 °F 55.4 °F 82% 30.01 in 3.7 mi ENE 10.4 mph - N/A   Scattered Clouds
4:20 PM 60.8 °F 55.4 °F 82% 30.01 in 2.8 mi ENE 12.7 mph - N/A   Haze
4:50 PM 60.8 °F 55.4 °F 82% 29.98 in 2.8 mi NE 9.2 mph - N/A   Haze
5:20 PM 59.0 °F 55.4 °F 88% 29.98 in 2.5 mi NE 8.1 mph - N/A   Haze
5:50 PM 59.0 °F 55.4 °F 88% 29.98 in 2.2 mi NE 8.1 mph - N/A   Haze
6:20 PM 59.0 °F 55.4 °F 88% 29.98 in 2.5 mi ENE 8.1 mph - N/A   Haze
6:50 PM 58 °F 55 °F 85% 30.00 in 2 mi ENE 6.9 mph - -   Light Haze
6:50 PM 59.0 °F 55.4 °F 88% 29.98 in 2.5 mi East 6.9 mph - N/A   Haze
7:20 PM 57.2 °F 55.4 °F 94% 29.98 in 2.5 mi ENE 6.9 mph - N/A   Overcast
7:50 PM 57.2 °F 55.4 °F 94% 30.01 in 2.5 mi East 6.9 mph - N/A   Overcast
8:20 PM 57.2 °F 55.4 °F 94% 30.01 in 2.5 mi East 5.8 mph - N/A   Overcast
8:50 PM 57.2 °F 55.4 °F 94% 30.01 in 2.2 mi East 5.8 mph - N/A   Overcast
9:20 PM 55.4 °F 53.6 °F 94% 30.01 in 2.2 mi ENE 8.1 mph - N/A   Overcast
9:50 PM 56 °F 54 °F 90% 30.01 in 2 mi ENE 8.1 mph - -   Light Haze
9:50 PM 55.4 °F 53.6 °F 94% 30.01 in 2.2 mi ENE 8.1 mph - N/A   Mostly Cloudy
10:20 PM 57.2 °F 53.6 °F 88% 30.01 in 2.5 mi ENE 8.1 mph - N/A   Haze
10:50 PM 55.4 °F 53.6 °F 94% 30.01 in 2.5 mi ENE 10.4 mph - N/A   Mostly Cloudy
11:20 PM 55.4 °F 53.6 °F 94% 30.01 in 2.2 mi East 6.9 mph - N/A   Mostly Cloudy
11:50 PM 55.4 °F 53.6 °F 94% 30.01 in 2.5 mi East 8.1 mph - N/A   Mostly Cloudy